Погода в Депоке

Индонезия     6°21′56″S   106°49′15″E
темп.,
°C
ветер,
м/с
пор.,
м/с
влажн.,
%
обл.,
%
осадки,
мм/ч
давл.,
гПа
погр.,
м
24 октября, вс
вс2401:00+27юв227741 0.8 1011285
04:00+27юв22795 0.0 1010208
07:00+28юв227476 0.0 1012402
10:00+32всв335373 0.0 10121351
13:00+34ссв544730 0.0 10091796
16:00+32ссв545433 0.0 1008836
19:00+30ссв225997 0.0 1010676
22:00+30св116188 0.1 1011780
25 октября, пн
пн2501:00+29сз1165100 0.1 1010588
04:00+28юз1169100 0.0 1009486
07:00+28юз1169100 0.0 1011591
10:00+32св015370 0.0 10101230
13:00+34с324457 0.0 10072100
16:00+32с65516 0.0 1006886
19:00+31ссз335297 0.2 10091096
22:00+30с325856 0.0 1010903
26 октября, вт
вт2601:00+29с226164 0.0 1008716
04:00+29ссв1263100 0.0 1008737
07:00+29в2263100 0.0 1010866
10:00+32св2251100 0.0 10101500
13:00+34с544679 0.0 10071894
16:00+31с545685 0.1 10061071
19:00+30ссв336342 0.9 1009871
22:00+28св237252 4.0 1010227
27 октября, ср
ср2701:00+28в117344 4.8 1008338
04:00+27ююв117643 0.1 1008255
07:00+28ююв1172100 0.3 1010475
10:00+31всв2256100 0.1 10101339
13:00+33ссв6552100 0.1 10071625
16:00+31ссв5561100 0.1 1006769
19:00+29св346964 3.3 1008460
22:00+28вюв11725 1.9 1010247
28 октября, чт
чт2801:00+28юз11765 3.2 1008244
04:00+27ююз117836 2.4 1008162
07:00+28ююв1174100 2.4 1010335
10:00+31всв2258100 0.0 10101049
13:00+33ссв445156 0.1 10071574
16:00+31ссв5564100 1.6 1007696
19:00+29всв2375100 11.2 1009148
22:00+28юв117647 4.8 1011154